CW5456 Hansville WA US current weather conditions

sailwx.info

Wind from 330 at 6 knots gusting 11

Air temperature 11.7° C
Dewpoint 9.2° C

Last reported at 2015-Jan-25 21:49 UTC.
Time now 2015-Jan-25 22:27 UTC

Location: N 47°55' W 122°35'.
View on Google Maps.

See reports from other nearby stations

  
Tides and Currents Weather Stations Pressure Air Temp Water Temp Dewpoint Dewpoint Depression Visibility Wind Speed Wind Dir Waves Ship Positions
date/time (UTC)wind fromknots sea level pressurealtimeterstation pressurevisibilityair tempwater tempwave heightnotes
2015-Jan-25 21:49 330 6 gusting 11 11.7
2015-Jan-25 21:44 336 6 gusting 6 12.2
2015-Jan-25 21:29 313 2 gusting 6 12.2
2015-Jan-25 21:04 009 1 gusting 5 12.2
2015-Jan-25 20:59 009 1 gusting 5 12.2
2015-Jan-25 20:54 355 3 gusting 6 12.8
2015-Jan-25 20:44 005 5 gusting 8 12.8
2015-Jan-25 20:14 202 15.0
2015-Jan-25 20:04 194 3 gusting 6 15.0
2015-Jan-25 19:59 215 2 gusting 5 15.0
2015-Jan-25 19:54 171 3 gusting 6 14.4
2015-Jan-25 19:49 193 2 gusting 6 14.4
2015-Jan-25 19:44 233 0 gusting 5 14.4
2015-Jan-25 19:39 210 1 gusting 5 14.4
2015-Jan-25 19:24 192 1 gusting 6 13.9
2015-Jan-25 19:04 209 0 gusting 6 13.9
2015-Jan-25 18:59 211 1 gusting 6 13.9
2015-Jan-25 18:49 178 3 gusting 8 13.3
2015-Jan-25 18:44 209 1 gusting 6 13.3
2015-Jan-25 18:39 166 6 gusting 8 13.3
2015-Jan-25 18:24 195 13.3
2015-Jan-25 18:19 163 3 gusting 6 13.3
2015-Jan-25 18:14 238 0 gusting 6 13.3
2015-Jan-25 18:09 197 1 gusting 6 12.8
2015-Jan-25 17:59 211 1 gusting 8 12.8
2015-Jan-25 17:49 149 2 gusting 9 12.2
2015-Jan-25 17:29 131 1 gusting 7 12.2
2015-Jan-25 17:24 111 2 gusting 8 12.2
2015-Jan-25 17:19 149 12.2
2015-Jan-25 17:14 163 8 gusting 8 12.2
2015-Jan-25 17:04 179 3 gusting 7 12.2
2015-Jan-25 16:54 159 1 gusting 6 12.2
2015-Jan-25 16:44 150 2 gusting 6 12.2
2015-Jan-25 16:39 153 0 gusting 7 11.7
2015-Jan-25 16:34 144 1 gusting 7 11.7
2015-Jan-25 16:29 141 11.7
2015-Jan-25 16:09 137 0 gusting 6 11.7
2015-Jan-25 16:04 156 2 gusting 6 11.7
2015-Jan-25 15:34 170 11.7
2015-Jan-25 15:29 134 11.7
2015-Jan-25 15:19 134 12.2
2015-Jan-25 15:09 134 12.2
2015-Jan-25 15:04 128 12.2
2015-Jan-25 14:54 128 12.2
2015-Jan-25 14:49 128 12.2
2015-Jan-25 14:44 128 12.2
2015-Jan-25 14:33 128 12.2
2015-Jan-25 14:23 119 0 gusting 5 12.2
2015-Jan-25 14:18 119 12.2
2015-Jan-25 13:28 129 11.7
2015-Jan-25 12:58 169 1 gusting 3 11.7
2015-Jan-25 12:53 148 11.7
2015-Jan-25 12:48 211 11.7
2015-Jan-25 12:33 211 11.7
2015-Jan-25 12:18 211 11.7
2015-Jan-25 12:03 211 11.7
2015-Jan-25 11:58 211 11.7
2015-Jan-25 11:43 211 0 gusting 2 11.7
2015-Jan-25 11:28 211 11.7
2015-Jan-25 11:03 211 11.7
2015-Jan-25 10:58 210 11.7
2015-Jan-25 10:53 211 11.7
2015-Jan-25 10:43 011 11.7
2015-Jan-25 10:28 011 11.7
2015-Jan-25 10:18 011 11.7
2015-Jan-25 10:08 011 12.2
2015-Jan-25 09:59 011 12.2
2015-Jan-25 09:48 010 12.2
2015-Jan-25 09:43 011 2 gusting 2 12.2
2015-Jan-25 09:38 186 0 gusting 1 12.2
2015-Jan-25 09:33 186 12.2
2015-Jan-25 09:18 331 11.7
2015-Jan-25 09:13 331 11.7
2015-Jan-25 09:08 331 11.7
2015-Jan-25 08:34 331 11.7
2015-Jan-25 08:23 331 1 gusting 2 11.7
2015-Jan-25 08:18 331 11.7
2015-Jan-25 08:14 331 11.7
2015-Jan-25 07:59 331 2 gusting 6 11.7
2015-Jan-25 07:54 331 3 gusting 6 11.7
2015-Jan-25 07:39 322 11.7
2015-Jan-25 07:34 028 2 gusting 3 11.7
2015-Jan-25 07:24 034 0 gusting 1 12.2
2015-Jan-25 07:19 034 0 gusting 2 12.2
2015-Jan-25 06:54 017 12.2
2015-Jan-25 06:49 017 12.2
2015-Jan-25 06:44 017 12.2
2015-Jan-25 06:39 017 1 gusting 2 12.2
2015-Jan-25 06:29 017 12.2
2015-Jan-25 06:24 017 12.2
2015-Jan-25 06:04 019 0 gusting 6 12.2
2015-Jan-25 05:54 355 5 gusting 6 12.2
2015-Jan-25 05:44 355 12.2
2015-Jan-25 05:34 355 1 gusting 1 12.2
2015-Jan-25 05:09 355 12.2
2015-Jan-25 04:59 355 12.2
2015-Jan-25 04:54 355 0 gusting 1 12.2
2015-Jan-25 04:44 355 12.2
2015-Jan-25 04:19 355 1 gusting 1 12.2
2015-Jan-25 04:09 355 12.2
2015-Jan-25 04:04 355 12.2
2015-Jan-25 03:59 355 11.7
2015-Jan-25 03:54 355 11.7
2015-Jan-25 03:49 355 11.7
2015-Jan-25 03:44 355 11.7
2015-Jan-25 03:39 355 11.7
2015-Jan-25 03:19 355 0 gusting 2 12.2
2015-Jan-25 02:59 355 1 gusting 7 12.8
2015-Jan-25 02:54 344 5 gusting 7 13.3
2015-Jan-25 02:49 326 0 gusting 2 13.3
2015-Jan-25 02:44 326 1 gusting 5 13.3
2015-Jan-25 02:39 337 13.3
2015-Jan-25 02:24 140 2 gusting 6 13.9
2015-Jan-25 02:19 261 2 gusting 6 13.9
2015-Jan-25 02:09 143 2 gusting 7 13.9
2015-Jan-25 01:54 238 1 gusting 5 13.3
2015-Jan-25 01:49 248 2 gusting 6 13.3
2015-Jan-25 01:44 292 2 gusting 7 13.3
2015-Jan-25 01:34 174 1 gusting 6 13.3
2015-Jan-25 01:24 128 1 gusting 3 12.8
2015-Jan-25 01:09 302 1 gusting 3 13.3
2015-Jan-25 00:59 296 13.9
2015-Jan-25 00:54 296 1 gusting 1 13.9
2015-Jan-25 00:44 296 0 gusting 3 13.9
2015-Jan-25 00:39 296 14.4
2015-Jan-25 00:34 331 2 gusting 3 14.4
2015-Jan-25 00:24 208 0 gusting 5 15.0
2015-Jan-25 00:19 037 2 gusting 6 15.0
2015-Jan-25 00:04 140 1 gusting 8 15.6
2015-Jan-24 23:54 171 0 gusting 6 15.6
2015-Jan-24 23:39 209 7 gusting 7 15.6
2015-Jan-24 23:24 183 8 gusting 12 15.6
2015-Jan-24 23:14 192 3 gusting 15 15.6
2015-Jan-24 22:59 151 7 gusting 11 15.6
2015-Jan-24 22:44 183 2 gusting 7 15.0
2015-Jan-24 22:39 161 0 gusting 7 15.0
2015-Jan-24 22:34 155 3 gusting 10 15.0
2015-Jan-24 22:24 112 0 gusting 14 15.0
2015-Jan-24 22:13 162 5 gusting 9 15.0
2015-Jan-24 22:03 123 1 gusting 7 14.4
2015-Jan-24 21:58 171 6 gusting 7 14.4
2015-Jan-24 21:53 179 6 gusting 7 14.4
2015-Jan-24 21:43 115 2 gusting 7 14.4
2015-Jan-24 21:23 180 2 gusting 6 13.9
2015-Jan-24 21:08 127 0 gusting 5 13.9
2015-Jan-24 20:48 087 2 gusting 2 14.4
2015-Jan-24 20:43 103 13.9
2015-Jan-24 20:18 117 1 gusting 6 13.9
2015-Jan-24 20:03 185 0 gusting 8 14.4
2015-Jan-24 19:58 138 14.4
2015-Jan-24 19:53 146 14.4
2015-Jan-24 19:48 174 1 gusting 6 14.4
2015-Jan-24 19:43 141 3 gusting 10 13.9
2015-Jan-24 19:18 184 5 gusting 8 13.9
2015-Jan-24 19:03 123 3 gusting 11 13.9
2015-Jan-24 18:53 165 5 gusting 6 13.9
2015-Jan-24 18:43 202 5 gusting 10 13.3
2015-Jan-24 18:39 173 2 gusting 10 13.3
2015-Jan-24 18:23 129 0 gusting 9 13.3
2015-Jan-24 18:08 171 1 gusting 6 12.8
2015-Jan-24 17:43 173 1 gusting 7 12.8
2015-Jan-24 17:29 180 3 gusting 6 12.8
2015-Jan-24 17:18 160 12.8
2015-Jan-24 17:03 161 1 gusting 3 12.8
2015-Jan-24 16:53 117 1 gusting 5 12.8
2015-Jan-24 16:49 210 1 gusting 5 12.8
2015-Jan-24 16:43 195 0 gusting 5 12.8
2015-Jan-24 16:34 176 2 gusting 6 12.8
2015-Jan-24 16:24 127 3 gusting 5 12.8
2015-Jan-24 16:14 128 2 gusting 8 12.8
2015-Jan-24 16:09 160 0 gusting 6 12.8
2015-Jan-24 16:04 132 1 gusting 6 12.8
2015-Jan-24 15:59 110 12.8
2015-Jan-24 15:39 198 0 gusting 2 12.8
2015-Jan-24 15:34 142 1 gusting 6 12.8
2015-Jan-24 15:29 153 12.8
2015-Jan-24 15:19 167 1 gusting 5 12.8
2015-Jan-24 15:09 142 1 gusting 3 12.8
2015-Jan-24 14:54 168 0 gusting 5 12.8
2015-Jan-24 14:49 129 1 gusting 6 12.8
2015-Jan-24 14:39 202 2 gusting 6 12.8
2015-Jan-24 14:33 148 0 gusting 6 12.8
2015-Jan-24 14:29 163 12.8
2015-Jan-24 14:24 157 12.8
2015-Jan-24 14:19 151 1 gusting 5 12.8
2015-Jan-24 14:14 171 2 gusting 6 12.8
2015-Jan-24 14:04 168 2 gusting 6 12.8
2015-Jan-24 13:59 171 5 gusting 6 12.8
2015-Jan-24 13:49 111 12.8
2015-Jan-24 13:39 130 12.8
2015-Jan-24 13:34 145 1 gusting 6 12.8
2015-Jan-24 13:09 206 6 gusting 6 12.2
2015-Jan-24 12:54 192 5 gusting 9 12.2
2015-Jan-24 12:49 213 1 gusting 9 12.2
2015-Jan-24 12:39 159 12.2
2015-Jan-24 12:29 184 1 gusting 2 12.2
2015-Jan-24 12:24 142 0 gusting 6 12.2
2015-Jan-24 12:19 142 12.2
2015-Jan-24 12:14 160 12.2
2015-Jan-24 12:09 144 2 gusting 6 12.2
2015-Jan-24 12:04 126 12.2
2015-Jan-24 11:59 144 6 gusting 6 12.2
2015-Jan-24 11:54 116 0 gusting 6 12.2
2015-Jan-24 11:49 227 1 gusting 6 12.2
2015-Jan-24 11:09 119 0 gusting 5 12.2
2015-Jan-24 10:49 131 12.2
2015-Jan-24 10:44 164 3 gusting 6 12.2
2015-Jan-24 10:39 158 2 gusting 6 12.2
2015-Jan-24 10:29 183 3 gusting 6 12.2
2015-Jan-24 10:24 155 1 gusting 3 12.2
2015-Jan-24 10:14 246 12.2
2015-Jan-24 10:09 157 0 gusting 7 12.2
2015-Jan-24 09:54 203 3 gusting 5 11.7
2015-Jan-24 09:39 202 1 gusting 6 11.7
2015-Jan-24 09:29 189 0 gusting 8 11.7
2015-Jan-24 09:24 221 2 gusting 8 11.7
2015-Jan-24 09:09 207 11.7
2015-Jan-24 09:04 191 3 gusting 6 11.7
2015-Jan-24 08:59 158 0 gusting 7 11.7
2015-Jan-24 08:49 202 5 gusting 9 11.7
2015-Jan-24 08:39 210 3 gusting 6 12.2
2015-Jan-24 08:29 186 6 gusting 7 11.7
2015-Jan-24 08:14 190 12.2
2015-Jan-24 08:09 198 0 gusting 5 12.2
2015-Jan-24 07:49 200 0 gusting 6 12.8
2015-Jan-24 07:44 211 12.8
2015-Jan-24 07:39 161 1 gusting 2 12.8
2015-Jan-24 07:29 163 1 gusting 6 12.8
2015-Jan-24 07:14 200 0 gusting 7 12.8
2015-Jan-24 06:54 005 1 gusting 6 12.2
2015-Jan-24 05:38 281 1 gusting 9 12.2
2015-Jan-24 05:18 157 3 gusting 15 12.8
2015-Jan-24 05:08 158 0 gusting 18 12.2
2015-Jan-24 05:03 147 12.2
2015-Jan-24 04:48 142 6 gusting 13 12.2
2015-Jan-24 04:23 164 6 gusting 14 12.2
2015-Jan-24 04:18 184 7 gusting 12 12.2
2015-Jan-24 04:13 209 8 gusting 18 12.2
2015-Jan-24 03:48 205 5 gusting 18 12.2
2015-Jan-24 03:43 168 1 gusting 18 12.2
2015-Jan-24 03:38 225 6 gusting 16 12.2
2015-Jan-24 03:29 259 2 gusting 11 12.2
2015-Jan-24 03:18 244 3 gusting 17 12.8
2015-Jan-24 03:13 240 1 gusting 12 12.2
2015-Jan-24 03:08 198 1 gusting 12 12.8
2015-Jan-24 02:43 162 5 gusting 16 12.8
2015-Jan-24 02:38 183 2 gusting 9 12.8
2015-Jan-24 02:28 060 1 gusting 11 12.8
2015-Jan-24 02:24 156 0 gusting 11 12.8
2015-Jan-24 02:18 196 12.8
2015-Jan-24 01:58 276 6 gusting 13 12.2
2015-Jan-24 01:54 279 0 gusting 13 12.2
2015-Jan-24 01:49 227 1 gusting 9 12.2
2015-Jan-24 01:44 178 2 gusting 9 12.2
2015-Jan-24 01:38 200 2 gusting 6 12.2
2015-Jan-24 01:23 030 1 gusting 6 12.2
2015-Jan-24 01:19 333 0 gusting 7 12.2
2015-Jan-24 01:08 341 6 gusting 12 12.2
2015-Jan-24 00:54 296 3 gusting 13 12.2
2015-Jan-24 00:44 178 2 gusting 11 12.2
2015-Jan-24 00:33 196 6 gusting 15 12.2
2015-Jan-24 00:14 155 6 gusting 15 12.2
2015-Jan-24 00:09 226 9 gusting 14 12.2
2015-Jan-24 00:04 182 12.2
2015-Jan-23 23:53 086 0 gusting 12 12.2
2015-Jan-23 23:49 199 10 gusting 11 12.2
2015-Jan-23 23:33 064 5 gusting 20 12.2
2015-Jan-23 23:04 167 7 gusting 25 11.7
2015-Jan-23 22:59 182 6 gusting 25 11.7
2015-Jan-23 22:54 207 6 gusting 24 11.7
2015-Jan-23 22:44 174 13 gusting 20 11.7
2015-Jan-23 22:39 114 7 gusting 20 11.7
2015-Jan-23 22:34 198 16 gusting 20 11.7
2015-Jan-23 22:29 167 16 gusting 24 11.7
2015-Jan-23 22:24 178 5 gusting 27 11.7
2015-Jan-23 22:19 175 22 gusting 27 11.7
2015-Jan-23 22:14 194 6 gusting 26 11.7
2015-Jan-23 22:04 176 8 gusting 21 11.7